Time,TemperatureF,DewpointF,PressureIn,WindDirection,WindDirectionDegrees,WindSpeedMPH,WindSpeedGustMPH,Humidity,HourlyPrecipIn,Conditions,Clouds,dailyrainin,SolarRadiationWatts/m^2,SoftwareType,DateUTC
2013-03-10 00:01:00,38.0,3.0,-100.00,NE,43,6.0,18.0,22,0.00,,,0.23,0.000000,,2013-03-10 08:01:00,
2013-03-10 00:11:00,38.0,3.0,-100.00,NE,43,6.0,18.0,22,0.00,,,0.23,0.000000,,2013-03-10 08:11:00,
2013-03-10 00:21:00,38.0,3.0,-100.00,NE,43,6.0,18.0,22,0.00,,,0.23,0.000000,,2013-03-10 08:21:00,
2013-03-10 00:51:00,38.0,2.0,-100.00,ESE,107,3.0,16.0,21,0.00,,,0.23,0.000000,,2013-03-10 08:51:00,
2013-03-10 01:01:00,38.0,2.0,-100.00,ESE,107,3.0,16.0,21,0.00,,,0.23,0.000000,,2013-03-10 09:01:00,
2013-03-10 01:11:00,38.0,2.0,-100.00,ESE,107,3.0,16.0,21,0.00,,,0.23,0.000000,,2013-03-10 09:11:00,
2013-03-10 01:52:00,37.0,-3.0,-100.00,NNE,22,2.0,13.0,18,0.00,,,0.23,0.000000,,2013-03-10 09:52:00,
2013-03-10 03:01:00,37.0,-3.0,-100.00,NNE,22,2.0,13.0,18,0.00,,,0.23,0.000000,,2013-03-10 10:01:00,
2013-03-10 03:11:00,37.0,-3.0,-100.00,NNE,22,2.0,13.0,18,0.00,,,0.23,0.000000,,2013-03-10 10:11:00,
2013-03-10 03:21:00,37.0,-3.0,-100.00,NNE,22,2.0,13.0,18,0.00,,,0.23,0.000000,,2013-03-10 10:21:00,
2013-03-10 03:52:00,38.0,4.0,-100.00,West,274,2.0,6.0,23,0.00,,,0.23,0.000000,,2013-03-10 10:52:00,
2013-03-10 04:01:00,38.0,4.0,-100.00,West,274,2.0,6.0,23,0.00,,,0.23,0.000000,,2013-03-10 11:01:00,
2013-03-10 04:11:00,38.0,4.0,-100.00,West,274,2.0,6.0,23,0.00,,,0.23,0.000000,,2013-03-10 11:11:00,
2013-03-10 04:21:00,38.0,4.0,-100.00,West,274,2.0,6.0,23,0.00,,,0.23,0.000000,,2013-03-10 11:21:00,
2013-03-10 07:21:00,39.0,-5.0,-100.00,East,83,9.0,12.0,15,-99.99,,,0.23,0.000000,,2013-03-10 14:21:00,
2013-03-10 07:52:00,37.0,-6.0,-100.00,SSE,161,1.0,11.0,15,0.00,,,0.23,5.000000,,2013-03-10 14:52:00,
2013-03-10 08:01:00,37.0,-6.0,-100.00,SSE,161,1.0,11.0,15,0.00,,,0.23,5.000000,,2013-03-10 15:01:00,
2013-03-10 08:11:00,37.0,-6.0,-100.00,SSE,161,1.0,11.0,15,0.00,,,0.23,5.000000,,2013-03-10 15:11:00,
2013-03-10 08:21:00,37.0,-6.0,-100.00,SSE,161,1.0,11.0,15,0.00,,,0.23,5.000000,,2013-03-10 15:21:00,
2013-03-10 08:52:00,45.0,-5.0,-100.00,SE,131,2.0,5.0,12,0.00,,,0.23,184.000000,,2013-03-10 15:52:00,
2013-03-10 09:52:00,44.0,2.0,-100.00,ENE,76,8.0,12.0,17,-99.99,,,0.23,434.000000,,2013-03-10 16:52:00,
2013-03-10 10:01:00,44.0,2.0,-100.00,ENE,76,8.0,12.0,17,-99.99,,,0.23,434.000000,,2013-03-10 17:01:00,
2013-03-10 10:11:00,44.0,2.0,-100.00,ENE,76,8.0,12.0,17,-99.99,,,0.23,434.000000,,2013-03-10 17:11:00,
2013-03-10 10:21:00,44.0,2.0,-100.00,ENE,76,8.0,12.0,17,-99.99,,,0.23,434.000000,,2013-03-10 17:21:00,
2013-03-10 10:51:00,46.0,2.0,-100.00,ESE,104,7.0,13.0,16,0.00,,,0.22,642.000000,,2013-03-10 17:51:00,
2013-03-10 11:01:00,46.0,2.0,-100.00,ESE,104,7.0,13.0,16,0.00,,,0.22,642.000000,,2013-03-10 18:01:00,
2013-03-10 11:11:00,46.0,2.0,-100.00,ESE,104,7.0,13.0,16,0.00,,,0.22,642.000000,,2013-03-10 18:11:00,
2013-03-10 11:21:00,46.0,2.0,-100.00,ESE,104,7.0,13.0,16,0.00,,,0.22,642.000000,,2013-03-10 18:21:00,
2013-03-10 11:52:00,46.0,5.0,-100.00,East,97,13.0,21.0,18,0.00,,,0.21,929.000000,,2013-03-10 18:52:00,
2013-03-10 12:01:00,46.0,5.0,-100.00,East,97,13.0,21.0,18,0.00,,,0.21,929.000000,,2013-03-10 19:01:00,
2013-03-10 12:11:00,46.0,5.0,-100.00,East,97,13.0,21.0,18,0.00,,,0.21,929.000000,,2013-03-10 19:11:00,
2013-03-10 12:21:00,46.0,5.0,-100.00,East,97,13.0,21.0,18,0.00,,,0.21,929.000000,,2013-03-10 19:21:00,
2013-03-10 12:53:00,48.0,7.0,-100.00,East,90,6.0,20.0,18,0.00,,,-99.99,1063.000000,,2013-03-10 19:53:00,
2013-03-10 13:02:00,48.0,7.0,-100.00,East,90,6.0,20.0,18,0.00,,,-99.99,1063.000000,,2013-03-10 20:02:00,
2013-03-10 13:12:00,48.0,7.0,-100.00,East,90,6.0,20.0,18,0.00,,,-99.99,1063.000000,,2013-03-10 20:12:00,
2013-03-10 13:22:00,48.0,7.0,-100.00,East,90,6.0,20.0,18,0.00,,,-99.99,1063.000000,,2013-03-10 20:22:00,
2013-03-10 13:53:00,56.0,6.0,-100.00,NE,49,3.0,11.0,13,0.00,,,0.14,1119.000000,,2013-03-10 20:53:00,
2013-03-10 14:52:00,58.0,9.0,-100.00,South,175,2.0,8.0,14,0.00,,,-99.99,1087.000000,,2013-03-10 21:52:00,
2013-03-10 15:02:00,58.0,9.0,-100.00,South,175,2.0,8.0,14,0.00,,,-99.99,1087.000000,,2013-03-10 22:02:00,
2013-03-10 15:53:00,55.0,10.0,-100.00,ESE,120,5.0,10.0,16,0.00,,,0.01,967.000000,,2013-03-10 22:53:00,
2013-03-10 16:02:00,55.0,10.0,-100.00,ESE,120,5.0,10.0,16,0.00,,,0.01,967.000000,,2013-03-10 23:02:00,
2013-03-10 16:12:00,55.0,10.0,-100.00,ESE,120,5.0,10.0,16,0.00,,,0.01,967.000000,,2013-03-10 23:12:00,
2013-03-10 16:22:00,55.0,10.0,-100.00,ESE,120,5.0,10.0,16,0.00,,,0.01,967.000000,,2013-03-10 23:22:00,
2013-03-10 16:52:00,58.0,15.0,-100.00,SW,215,5.0,13.0,18,0.00,,,0.00,775.000000,,2013-03-10 23:52:00,
2013-03-10 17:02:00,58.0,15.0,-100.00,SW,215,5.0,13.0,18,0.00,,,0.00,775.000000,,2013-03-11 00:02:00,
2013-03-10 17:12:00,58.0,15.0,-100.00,SW,215,5.0,13.0,18,0.00,,,0.00,775.000000,,2013-03-11 00:12:00,
2013-03-10 17:22:00,58.0,15.0,-100.00,SW,215,5.0,13.0,18,0.00,,,0.00,775.000000,,2013-03-11 00:22:00,
2013-03-10 17:53:00,54.0,14.0,-100.00,West,263,5.0,12.0,20,0.00,,,0.00,519.000000,,2013-03-11 00:53:00,
2013-03-10 18:02:00,54.0,14.0,-100.00,West,263,5.0,12.0,20,0.00,,,0.00,519.000000,,2013-03-11 01:02:00,
2013-03-10 18:53:00,49.0,16.0,-100.00,NW,306,8.0,12.0,27,-99.99,,,0.00,177.000000,,2013-03-11 01:53:00,
2013-03-10 19:02:00,49.0,16.0,-100.00,NW,306,8.0,12.0,27,-99.99,,,0.00,177.000000,,2013-03-11 02:02:00,
2013-03-10 19:12:00,49.0,16.0,-100.00,NW,306,8.0,12.0,27,-99.99,,,0.00,177.000000,,2013-03-11 02:12:00,
2013-03-10 19:22:00,49.0,16.0,-100.00,NW,306,8.0,12.0,27,-99.99,,,0.00,177.000000,,2013-03-11 02:22:00,
2013-03-10 19:52:00,46.0,22.0,-100.00,NW,321,13.0,16.0,39,0.00,,,0.00,15.000000,,2013-03-11 02:52:00,
2013-03-10 20:02:00,46.0,22.0,-100.00,NW,321,13.0,16.0,39,0.00,,,0.00,15.000000,,2013-03-11 03:02:00,
2013-03-10 20:12:00,46.0,22.0,-100.00,NW,321,13.0,16.0,39,0.00,,,0.00,15.000000,,2013-03-11 03:12:00,
2013-03-10 20:21:00,46.0,22.0,-100.00,NW,321,13.0,16.0,39,0.00,,,0.00,15.000000,,2013-03-11 03:21:00,
2013-03-10 20:52:00,44.0,24.0,-100.00,NW,315,14.0,17.0,45,0.00,,,0.00,0.000000,,2013-03-11 03:52:00,
2013-03-10 21:02:00,44.0,24.0,-100.00,NW,315,14.0,17.0,45,0.00,,,0.00,0.000000,,2013-03-11 04:02:00,
2013-03-10 21:12:00,44.0,24.0,-100.00,NW,315,14.0,17.0,45,0.00,,,0.00,0.000000,,2013-03-11 04:12:00,
2013-03-10 21:22:00,44.0,24.0,-100.00,NW,315,14.0,17.0,45,0.00,,,0.00,0.000000,,2013-03-11 04:22:00,
2013-03-10 21:53:00,44.0,15.0,-100.00,NNW,331,13.0,19.0,30,0.00,,,0.00,0.000000,,2013-03-11 04:53:00,
2013-03-10 22:03:00,44.0,15.0,-100.00,NNW,331,13.0,19.0,30,0.00,,,0.00,0.000000,,2013-03-11 05:03:00,
2013-03-10 22:11:00,44.0,15.0,-100.00,NNW,331,13.0,19.0,30,0.00,,,0.00,0.000000,,2013-03-11 05:11:00,
2013-03-10 22:21:00,44.0,15.0,-100.00,NNW,331,13.0,19.0,30,0.00,,,0.00,0.000000,,2013-03-11 05:21:00,
2013-03-10 22:52:00,45.0,10.0,-100.00,NNW,336,9.0,16.0,24,0.00,,,-99.99,0.000000,,2013-03-11 05:52:00,
2013-03-10 23:02:00,45.0,10.0,-100.00,NNW,336,9.0,16.0,24,0.00,,,-99.99,0.000000,,2013-03-11 06:02:00,
2013-03-10 23:11:00,45.0,10.0,-100.00,NNW,336,9.0,16.0,24,0.00,,,-99.99,0.000000,,2013-03-11 06:11:00,
2013-03-10 23:22:00,45.0,10.0,-100.00,NNW,336,9.0,16.0,24,0.00,,,-99.99,0.000000,,2013-03-11 06:22:00,
2013-03-10 23:53:00,44.0,9.0,-100.00,East,90,5.0,11.0,23,0.00,,,0.00,0.000000,,2013-03-11 06:53:00,